Location: Newark
(45.5000°N, 11.4167°E)
Time: 18:14:10
(UTC+00:00)

Vanguard 2 - Pass Details

Date: 25 August 2019
Orbit: 554 x 2937 km, 32.9° (Epoch: 16 October)

Event Time Altitude Azimuth Distance (km) Brightness Sun altitude
Rises 12:23:17 0° 239° (WSW) 3,306 11.3 52.4°
Reaches altitude 10° 12:25:38 10° 228° (SW) 2,594 11.0 52.2°
Maximum altitude 12:31:05 31° 167° (SSE) 1,969 10.6 51.8°
Drops below altitude 10° 12:39:22 10° 111° (ESE) 4,004 11.2 51.0°
Sets 12:43:57 0° 103° (ESE) 5,433 11.7 50.5°
